Flag for U.S.A. Weather past 2 weeks in Buffalo, New York, U.S.A.

Now
33 °F

Light snow. Fog.


Feels Like: 23 °F
Forecast: 5 / 29 °F
Wind: 14 mph from West

Location: Greater Buffalo International Airport

Current Time: Jan 29, 2015 at 9:44:14 PM

Latest Report: Jan 29, 2015 at 8:54 PM


Visibility: 2 mi

Pressure: 29.78 "Hg

Humidity: 92%

Dew point: 31 °F

Location of BuffaloLocation

Historic Weather in Buffalo — Graph

°F

Buffalo temperature yesterday

Maximum temperature yesterday: 21 °F (at 12:54 PM)
Minimum temperature yesterday: 5 °F (at 4:54 AM)
Average temperature yesterday: 13 °F

Past Weeks' High & Low Weather Summary

 TemperatureHumidityPressure
High44 °F (Jan 18, 2:54 AM)93% (Jan 24, 3:54 PM)30.41 "Hg (Jan 24, 3:54 PM)
Low2 °F (Jan 17, 2:54 AM)34% (Jan 29, 11:54 AM)29.47 "Hg (Jan 24, 3:02 PM)
Average22 °F72%30.01 "Hg
* Reported Jan 14 8:54 PM — Jan 29 8:54 PM, Buffalo, Weather by CustomWeather, © 2014

Note: Actual official high and low records may vary slightly from our data, if they occured in-between our weather recording intervals... More about our weather records

Advertising

Buffalo weather history for previous 24 hours

 ConditionsComfort  
Time TempWeatherWind HumidityBarometerVisibility
8:54 PM
Jan 29
33 °FLight snow. Fog.14 mph92%29.78 "Hg2 mi
7:54 PM33 °FLight snow. Fog.14 mph92%29.76 "Hg1 mi
6:54 PM33 °FLight snow. Fog.13 mph92%29.75 "Hg1 mi
5:54 PM33 °FLight snow. Fog.10 mph92%29.75 "Hg1 mi
4:54 PM34 °FLight snow. Low clouds.18 mph82%29.75 "Hg5 mi
3:54 PM33 °FLight snow. Fog.14 mph88%29.75 "Hg1 mi
3:00 PM32 °FSnow. Fog.16 mph88%29.74 "Hg1 mi
1:54 PM36 °FLight snow. Mostly cloudy.12 mph42%29.77 "Hg10 mi
12:54 PM34 °FLight snow. Mostly cloudy.10 mph48%29.81 "Hg10 mi
11:54 AM34 °FLight snow. Mostly cloudy.9 mph34%29.84 "Hg10 mi
10:54 AM32 °FOvercast.10 mph36%29.90 "Hg10 mi
9:54 AM29 °FOvercast.10 mph41%29.98 "Hg10 mi
8:54 AM27 °FMostly cloudy.9 mph41%30.03 "Hg10 mi
7:54 AM25 °FOvercast.9 mph40%30.09 "Hg10 mi
6:54 AM22 °FMostly cloudy.9 mph48%30.11 "Hg10 mi
5:54 AM19 °FMostly cloudy.6 mph54%30.15 "Hg10 mi
4:54 AM17 °FPassing clouds.9 mph56%30.20 "Hg10 mi
3:54 AM14 °FPassing clouds.5 mph61%30.24 "Hg10 mi
2:54 AM13 °FPassing clouds.6 mph64%30.26 "Hg10 mi
1:54 AM12 °FPassing clouds.6 mph67%30.27 "Hg10 mi
12:54 AM11 °FPassing clouds.5 mph73%30.29 "Hg10 mi
11:54 PM
Jan 28
11 °FPassing clouds.6 mph73%30.31 "Hg10 mi
10:54 PM13 °FPassing clouds.6 mph77%30.32 "Hg10 mi
9:54 PM14 °FPassing clouds.7 mph80%30.32 "Hg10 mi
Weather by CustomWeather, © 2014

See weather overviewHow to use our weather pages